Regional Weather Roundup
Issued by NWS Goodland, KS

Home | Current Version | Previous Version | Graphics & Text | Print | Product List | Glossary On
Versions: 1 2 3 4 5 6 7 8 9 10 11 12 13 14 15 16 17 18 19 20 21 22 23 24 25 26 27 28 29 30 31 32 33 34 35 36 37 38 39 40 41 42 43 44 45 46 47 48 49 50
000
ASUS43 KGLD 221408
RWRGLD

GOODLAND FORECAST AREA HOURLY WEATHER ROUNDUP
NATIONAL WEATHER SERVICE GOODLAND KS
700 AM MST THU FEB 22 2018

...OFFICIAL OBSERVATIONS...

CITY           SKY/WX    TMP DP  RH WIND       PRES   REMARKS
GOODLAND KS    CLOUDY    18   8  65 S15       30.16F WCI   4
HILL CITY KS   CLOUDY    21  20  96 E5        30.30S FOG
IMPERIAL NEB   CLOUDY    19  14  81 SE12      30.19R WCI   7
MCCOOK NEB     CLOUDY    21  13  71 SE12      30.26R WCI   9
AKRON CO       FAIR      13   7  77 SE12      30.06R WCI  -1
BURLINGTON CO  FAIR      10   4  76 SE9       30.12F
LIMON CO       CLOUDY    12   7  80 SE12      30.02S WCI  -2
$$

...UNOFFICIAL OBSERVATIONS...

CITY           SKY/WX    TMP DP  RH WIND       PRES   REMARKS
COLBY KS       CLOUDY    21  16  79 SE13      30.23R WCI   9
LENORA KS        N/A     19  32 100 CALM        N/A
TRENTON NEB      N/A     20  32 100 SE7         N/A
YUMA CO        CLOUDY    18   7  62 S10       30.11R WCI   6
$$




USA.gov is the U.S. government's official web portal to all federal, state and local government web resources and services.